Regional Weather Roundup
Issued by NWS

Home | Current Version | Previous Version | Text Only | Print | Product List | Glossary On
Versions: 1 2 3 4 5 6 7 8 9 10 11 12 13 14 15 16 17 18 19 20 21 22 23 24 25 26 27 28 29 30 31 32 33 34 35 36 37 38 39 40 41 42 43 44 45 46 47 48 49 50
000
ASUS43 KDMX 202207
RWRIA

WEATHER ROUNDUP FOR IOWA
NATIONAL WEATHER SERVICE DES MOINES IA
500 PM CDT SAT SEP 20 2014

NOTE: "FAIR" INDICATES FEW OR NO CLOUDS BELOW 12,000 FEET WITH NO
SIGNIFICANT WEATHER AND/OR OBSTRUCTIONS TO VISIBILITY.

* - THESE STATIONS ARE NOT NWS STATIONS...THUS NOT UNDER NWS
QUALITY CONTROL.  THEY ALSO DO NOT REPORT WEATHER SUCH
AS PRECIPITATION OR FOG.

IAZ001>003-012>014-020>022-031>034-043>046-202300-
   NORTHWEST IOWA

CITY           SKY/WX    TMP DP  RH WIND       PRES   REMARKS
CARROLL *      SUNNY     81  57  44 W14G21    29.88F HX  81
CHEROKEE *     SUNNY     81  54  39 W15G22    29.87F HX  80
DENISON *      SUNNY     81  57  44 W9G15     29.89S HX  81
LE MARS *      MOSUNNY   82  59  44 W9        29.88F HX  82
ORANGE CITY *  MOSUNNY   82  50  32 W20       29.87F HX  81
SHELDON *      SUNNY     81  55  41 W14G26    29.84F HX  80
SIOUX CITY     SUNNY     85  57  38 W14G21    29.88F HX  84
SPENCER        SUNNY     82  53  36 W23G30    29.84F HX  81
STORM LAKE *   SUNNY     81  59  47 W16G24    29.88S HX  81
$$

IAZ055>058-069>071-079>083-090>094-202300-
   SOUTHWEST IOWA

CITY           SKY/WX    TMP DP  RH WIND       PRES   REMARKS
ATLANTIC *     SUNNY     82  57  42 NW12G22   29.90R HX  82
AUDUBON *      SUNNY     82  52  34 NW8       29.91S HX  81
CLARINDA *     SUNNY     82  66  57 W12       29.92R HX  85
COUNCIL BLFS * SUNNY     84  61  45 NW7       29.91S HX  84
CRESTON *      MOSUNNY   81  68  65 W12G17    29.90F HX  83
HARLAN  *      SUNNY     82  55  39 NW13G20   29.94S HX  82
LAMONI         PTSUNNY   81  68  64 W10       29.90S HX  84
RED OAK *      MOSUNNY   84  64  51 NW8       29.90S HX  86
SHENANDOAH *   SUNNY     84  66  54 NW9       29.91S HX  86
$$

IAZ047>049-059>061-072>074-084-202300-
   CENTRAL IOWA

CITY           SKY/WX    TMP DP  RH WIND       PRES   REMARKS
AMES           MOSUNNY   83  58  42 W10G22    29.84F HX  83
ANKENY *       SUNNY     82  59  44 NW12G18   29.84S HX  82
CHARITON *     PTSUNNY   79  70  73 SW7       29.88S HX  81
DES MOINES     MOSUNNY   85  62  46 W14       29.85S HX  85
GRINNELL*      MOSUNNY   81  63  54 W10G16    29.84F HX  82
KNOXVILLE *    SUNNY     82  64  54 W12G17    29.85S HX  84
MARSHALLTOWN   MOSUNNY   82  58  43 W14       29.82F HX  82
PELLA *        SUNNY     82  68  61 W8        29.86S HX  85
PERRY *          N/A     84  54  34 W13G20    29.87S HX  83
$$

IAZ004>006-015-016-023>025-035-036-202300-
   NORTH CENTRAL IOWA

CITY           SKY/WX    TMP DP  RH WIND       PRES   REMARKS
ALGONA *       SUNNY     81  55  41 W16G25    29.82F HX  80
CLARION *        N/A     81  55  41 W14G22    29.83S HX  80
ESTHERVILLE    SUNNY     80  53  39 W16G23    29.81F HX  80
FORT DODGE *   MOSUNNY   81  55  41 W13G20    29.85S HX  80
MASON CITY     MOSUNNY   80  56  43 W14       29.81F HX  80
FOREST CITY *  MOSUNNY   81  54  39 W10G20    29.80F HX  80
IOWA FALLS *     N/A     82  52  34 W16       29.84S HX  81
$$

IAZ007>011-017>019-026>030-037>042-050>054-066-202300-
   NORTHEAST IOWA

CITY           SKY/WX    TMP DP  RH WIND       PRES   REMARKS
CEDAR RAPIDS   MOSUNNY   79  67  66 SW10      29.80F HX  81
CHARLES CITY * MOSUNNY   79  55  44 W12G18    29.81S
CLINTON *      PTSUNNY   77  64  65 W15G21    29.84R
DECORAH *      SUNNY     77  59  53 W6G15     29.78F
DUBUQUE        PTSUNNY   76  63  64 W10       29.80S
MONTICELLO *   MOSUNNY   77  66  69 W9G15     29.80F
OELWEIN *      SUNNY     81  57  44 NW15G22   29.81S HX  81
WATERLOO       SUNNY     81  57  43 W13G20    29.79F HX  81
$$

IAZ064-065-067-068-078-202300-
   EAST CENTRAL IOWA

CITY           SKY/WX    TMP DP  RH WIND       PRES   REMARKS
DAVENPORT      PTSUNNY   77  64  64 W13       29.84R
IOWA CITY      SUNNY     80  66  62 SW10      29.83F HX  82
MT. PLEASANT * MOSUNNY   81  64  57 SW12G18   29.85S HX  82
MUSCATINE *    CLOUDY    81  68  65 SW14      29.83S HX  83
QUAD CITIES    PTSUNNY   78  67  68 W9        29.82S HX  80
$$

IAZ062-063-075>077-085>089-095>099-202300-
   SOUTHEAST IOWA

CITY           SKY/WX    TMP DP  RH WIND       PRES   REMARKS
BURLINGTON     MOSUNNY   79  69  71 SW14      29.84F HX  81
FAIRFIELD *    PTSUNNY   79  66  65 SW8       29.86R HX  81
FORT MADISON * MOSUNNY   81  68  65 SW13G18   29.87F HX  83
KEOKUK *       CLOUDY    77  70  78 W8        29.87F
OSKALOOSA *      N/A     81  68  65 W14       29.85F HX  83
CENTERVILLE *  MOSUNNY   79  68  69 SW12G17   29.91R HX  81
OTTUMWA        PTSUNNY   80  67  64 SW13G20   29.85F HX  82
WASHINGTON *   MOSUNNY   81  68  65 SW9G16    29.84F HX  83
$$

ABBREVIATIONS USED IN REMARKS
   TC - TEMPERATURES IN CELSIUS
  WCI - WIND CHILL INDEX
   HX - HEAT INDEX
  VSB - VISIBILITY
$$



USA.gov is the U.S. government's official web portal to all federal, state and local government web resources and services.